Weather History for Baltimore, MD

Change the Weather History Date:

Friday, June 14, 2013

  Actual Average Record
Temperature  
Mean Temperature 70 °F 72 °F  
Max Temperature 79 °F 83 °F 98 °F (1994)
Min Temperature 60 °F 62 °F 46 °F (1978)
Degree Days  
Heating Degree Days 0 0  
Month to date heating degree days 0 13  
Since 1 June heating degree days 0 13  
Since 1 July heating degree days 4486 4762  
Cooling Degree Days 5 8  
Month to date cooling degree days 109 85  
Year to date cooling degree days 240 169  
Since 1 June cooling degree days 109 85  
Growing Degree Days 20 (Base 50)    
Moisture  
Dew Point 54 °F    
Average Humidity 60    
Maximum Humidity 84    
Minimum Humidity 35    
Precipitation  
Precipitation 0.04 in 0.12 in 2.14 in (1947)
Month to date precipitation 6.25 1.69  
Year to date precipitation 20.11 18.72  
Snow  
Snow 0.00 in 0.00 in - ()
Month to date snowfall 0.0 0.0  
Since 1 July snowfall 8.0 20.1  
Snow Depth 0.00 in    
Sea Level Pressure  
Sea Level Pressure 29.79 in    
Wind  
Wind Speed 8 mph (NNW)    
Max Wind Speed 21 mph    
Max Gust Speed 33 mph    
Visibility 10 miles    
Events Rain    
T = Trace of Precipitation, MM = Missing Value Source: NWS Daily Summary

Daily Weather History Graph

Daily Weather History Graph

Search for Another Location

Airport:

Trip Planner

Search our weather history database for the weather conditions in past years. The results will help you decide how hot, cold, wet, or windy it might be!

Date:

Astronomy

Jun. 14, 2013 Rise Set
Actual Time 5:39 AM EDT 8:34 PM EDT
Civil Twilight 5:07 AM EDT 9:06 PM EDT
Nautical Twilight 4:27 AM EDT 9:47 PM EDT
Astronomical Twilight 3:40 AM EDT 10:34 PM EDT
Moon 11:10 AM EDT (6/14) No Moon Set
Length of Visible Light 15h 58m
Length of Day
14h 54m
Waxing Crescent, 30% of the Moon is Illuminated
Jun 14
Waxing Crescent
Jun 16
First Quarter
Jun 23
Full
Jun 30
Last Quarter
Jul 8
New

Hourly Weather History & Observations

Time (EDT) Temp. Dew Point Humidity Pressure Visibility Wind Dir Wind Speed Gust Speed Precip Events Conditions
12:54 AM 69.1 °F 55.0 °F 61% 29.57 in 10.0 mi NW 13.8 mph 21.9 mph N/A   Overcast
1:54 AM 66.0 °F 57.0 °F 73% 29.60 in 10.0 mi NW 15.0 mph 24.2 mph N/A   Overcast
2:54 AM 64.0 °F 57.0 °F 78% 29.63 in 10.0 mi NNW 6.9 mph - N/A   Mostly Cloudy
3:43 AM 64.4 °F 55.4 °F 73% 29.66 in 10.0 mi North 16.1 mph 24.2 mph N/A   Mostly Cloudy
3:54 AM 63.0 °F 54.0 °F 72% 29.66 in 10.0 mi North 16.1 mph 23.0 mph N/A   Overcast
4:08 AM 62.6 °F 53.6 °F 72% 29.67 in 10.0 mi North 11.5 mph 17.3 mph N/A   Overcast
4:54 AM 61.0 °F 54.0 °F 78% 29.70 in 10.0 mi North 9.2 mph 19.6 mph N/A   Overcast
5:54 AM 60.1 °F 55.0 °F 83% 29.73 in 7.0 mi NNW 6.9 mph - 0.00 in   Mostly Cloudy
6:19 AM 60.8 °F 55.4 °F 82% 29.74 in 9.0 mi NNW 4.6 mph - 0.00 in Rain Light Rain
6:54 AM 60.1 °F 55.0 °F 83% 29.75 in 10.0 mi NW 5.8 mph - 0.00 in   Overcast
7:54 AM 60.1 °F 55.9 °F 86% 29.78 in 7.0 mi NW 9.2 mph - 0.02 in Rain Light Rain
8:20 AM 60.8 °F 57.2 °F 88% 29.79 in 8.0 mi NW 6.9 mph - 0.01 in Rain Light Rain
8:54 AM 61.0 °F 57.0 °F 87% 29.81 in 10.0 mi Variable 6.9 mph - 0.02 in   Mostly Cloudy
9:54 AM 64.9 °F 54.0 °F 68% 29.84 in 10.0 mi North 11.5 mph 23.0 mph N/A   Mostly Cloudy
10:54 AM 66.9 °F 48.9 °F 52% 29.86 in 10.0 mi NNE 13.8 mph 24.2 mph N/A   Scattered Clouds
11:54 AM 70.0 °F 48.0 °F 46% 29.86 in 10.0 mi NNE 9.2 mph 21.9 mph N/A   Scattered Clouds
12:54 PM 73.0 °F 50.0 °F 44% 29.87 in 10.0 mi NNW 8.1 mph 18.4 mph N/A   Partly Cloudy
1:54 PM 73.0 °F 52.0 °F 48% 29.87 in 10.0 mi NW 9.2 mph - N/A   Scattered Clouds
2:54 PM 75.0 °F 52.0 °F 44% 29.87 in 10.0 mi NNW 8.1 mph - N/A   Scattered Clouds
3:54 PM 77.0 °F 51.1 °F 40% 29.86 in 10.0 mi NW 15.0 mph 18.4 mph N/A   Scattered Clouds
4:54 PM 79.0 °F 48.9 °F 35% 29.85 in 10.0 mi NNW 15.0 mph 19.6 mph N/A   Scattered Clouds
5:54 PM 79.0 °F 48.9 °F 35% 29.86 in 10.0 mi WNW 10.4 mph - N/A   Scattered Clouds
6:54 PM 78.1 °F 50.0 °F 37% 29.87 in 10.0 mi NW 9.2 mph - N/A   Scattered Clouds
7:54 PM 75.0 °F 52.0 °F 44% 29.88 in 10.0 mi NW 4.6 mph - N/A   Scattered Clouds
8:54 PM 71.1 °F 53.1 °F 53% 29.90 in 10.0 mi WNW 5.8 mph - N/A   Scattered Clouds
9:54 PM 69.1 °F 54.0 °F 58% 29.92 in 10.0 mi NW 3.5 mph - N/A   Partly Cloudy
10:54 PM 66.9 °F 55.9 °F 68% 29.95 in 10.0 mi Calm Calm - N/A   Partly Cloudy
11:54 PM 63.0 °F 55.9 °F 78% 29.96 in 10.0 mi West 3.5 mph - N/A   Partly Cloudy